User: anonymous   Login
Location: Campillo
(40.8621°N, 4.2488°W)
Time: 04:22:04
(UTC+00:00)
Language:

USA 305 - Orbit

View from above orbital plane
View from above orbital plane
View from above satellite
View from above satellite

Ground track
Ground track

The orbit data is extracted from the following two-line orbital elements,

1 45873U 20046A   21194.90751800 0.00001500  00000-0  12150-3 0    07
2 45873  53.9783 149.5812 0015835 104.0533 255.9466 14.99169726    03
Epoch (UTC): 13 July 2021 21:46:49
Eccentricity: 0.0015835
inclination: 53.9783°
perigee height: 558 km
apogee height: 580 km
right ascension of ascending node: 149.5812°
argument of perigee: 104.0533°
revolutions per day: 14.99169726
mean anomaly at epoch: 255.9466°
orbit number at epoch: 0

The dashed part of the orbit path shows where the satellite is in the earth's shadow,  

DLR